[Iaude] MPEC E19: 2024 EG [a=2.05,e=0.67,i=7.9,H=24.6]
    mpec at cfa.harvard.edu 
    mpec at cfa.harvard.edu
       
    Sat Mar  2 23:08:49 EST 2024
    
    
  
M.P.E.C. 2024-E19                                 Issued 2024 March 3, 04:07 UT
     The Minor Planet Electronic Circulars contain information on unusual
         minor planets, routine data on comets and natural satellites,
         and occasional editorial announcements.  They are published
    on behalf of Division F of the International Astronomical Union by the
          Minor Planet Center, Smithsonian Astrophysical Observatory,
                          Cambridge, MA 02138, U.S.A.
			  
             Prepared using the Tamkin Foundation Computer Network
                              MPC at CFA.HARVARD.EDU
            URL https://www.minorplanetcenter.net/    ISSN 1523-6714
                                    2024 EG                                     
Observations:
     K24E00G* C2024 03 01.39018910 13 49.214-18 54 03.94         20.64wXEE019F52
     K24E00G  C2024 03 01.40061610 13 46.917-18 55 01.96         20.77wXEE019F52
     K24E00G  C2024 03 01.41106310 13 44.579-18 56 01.45         20.91wXEE019F52
     K24E00G  C2024 03 01.42147910 13 42.289-18 56 59.62         20.85wXEE019F52
     K24E00G  C2024 03 01.49426710 13 26.085-19 03 47.50         20.73GVEE019F52
     K24E00G  C2024 03 01.49491410 13 25.911-19 03 51.59         20.66GVEE019F52
     K24E00G |C2024 03 02.11742910 11 25.820-20 06 07.20         20.2 GVEE019807
     K24E00G |C2024 03 02.12189010 11 24.680-20 06 36.80         20.3 GVEE019807
     K24E00G |C2024 03 02.12622010 11 23.570-20 07 05.90         20.3 GVEE019807
     K24E00G  C2024 03 02.25933210 10 52.524-20 23 47.39         20.1 GVEE019H01
     K24E00G  C2024 03 02.26520410 10 50.953-20 24 27.65         20.2 GVEE019H01
     K24E00G  C2024 03 02.27879810 10 47.296-20 26 01.12         20.2 GVEE019H01
     K24E00G  C2024 03 02.28350910 10 46.043-20 26 33.30         20.3 GVEE019H01
     K24E00G KC2024 03 02.35427710 10 27.235-20 34 39.40         20.11GVEE019I52
     K24E00G KC2024 03 02.35555210 10 26.843-20 34 49.26         20.32GVEE019I52
     K24E00G KC2024 03 02.35683010 10 26.512-20 34 58.04         20.60GVEE019I52
     K24E00G KC2024 03 02.35812010 10 26.209-20 35 06.97         20.21GVEE019I52
     K24E00G  C2024 03 02.39750510 10 20.461-20 39 32.86         19.99GVEE019F52
     K24E00G  C2024 03 02.39832610 10 20.213-20 39 38.87         20.34GVEE019F52
     K24E00G |C2024 03 03.06944010 07 28.190-22 04 40.10         20.2 GVEE019807
     K24E00G |C2024 03 03.07157010 07 27.490-22 04 58.10         19.8 GVEE019807
     K24E00G |C2024 03 03.07377010 07 26.770-22 05 17.30         19.7 GVEE019807
     K24E00G |C2024 03 03.07597010 07 26.040-22 05 35.90         19.7 GVEE019807
Observer details:
807 Cerro Tololo Observatory, La Serena.  Observers T. Linder, R. Holmes.
    0.61-m f/6.8 Ritchey-Chretien + CCD.
F52 Pan-STARRS 2, Haleakala.  Observers J. Herman, T. Lowe, P. Minguez, A.
    Schultz, I. Smith.  Measurers K. Chambers, T. de Boer, J. Fairlamb, H.
    Gao, M. Huber, C.-C. Lin, E. Magnier, Y. Ramanjooloo, R. Wainscoat, R.
    Weryk.  1.8-m Ritchey-Chretien + CCD.
H01 Magdalena Ridge Observatory, Socorro.  Observers W. H. Ryan, E. V. Ryan.
    Measurer W. H. Ryan.  2.4-m f/8.9 Ritchey-Chretien + CCD.
I52 Steward Observatory, Mt. Lemmon Station.  Observers T. Beuden, R. A.
    Kowalski.  Measurers T. Beuden, V. F. Carvajal, D. Fay, J. B. Fazekas, D.
    C. Fuls, A. R. Gibbs, A. D. Grauer, H. Groeller, J. K. Hogan, R. A.
    Kowalski, S. M. Larson, G. J. Leonard, D. Rankin, R. L. Seaman, F. C.
    Shelly, K. W. Wierzchos.  1.0-m prime focus + CCD.
Orbital elements:
2024 EG                                                  Earth MOID = 0.0215 AU
Epoch 2024 Mar. 31.0 TT = JDT 2460400.5                 Bell                    
M 352.28192              (2000.0)            P               Q                  
n   0.33603039     Peri.   68.14747     -0.40895174     +0.91253908             
a   2.0490396      Node   177.69106     -0.87991293     -0.39270094             
e   0.6673461      Incl.    7.93174     -0.24189194     -0.11427337             
P   2.93           H   24.61          G   0.15           U   8                  
Residuals in seconds of arc
240301 F52  0.2+  0.4+    240302 807  0.0   0.1-    240302 I52  0.4+  0.2+
240301 F52  0.2+  0.8+    240302 H01  0.0   0.5-    240302 F52  0.3+  0.2+
240301 F52  0.1-  0.2-    240302 H01  0.0   0.4-    240302 F52  0.1+  0.1+
240301 F52  0.2+  0.0     240302 H01  0.1-  0.4-    240303 807  0.0   0.3-
240301 F52  0.4+  0.2+    240302 H01  0.1+  0.2-    240303 807  0.0   0.0
240301 F52  0.0   0.2-    240302 I52  0.2+  1.2+    240303 807  0.0   0.2-
240302 807  0.1-  0.0     240302 I52  0.5-  0.1+    240303 807  0.1-  0.2+
240302 807  0.1-  0.1+    240302 I52  0.3-  0.2+
Ephemeris:
2024 EG                  a,e,i = 2.05, 0.67, 8                   q = 0.6816
Date    TT    R. A. (2000) Decl.     Delta      r    Elong.  Phase     V
2024 02 02    10 29 40.8 -06 43 26   0.4390  1.3754   147.3    22.8    24.6
...
2024 02 17    10 28 42.3 -10 15 06   0.2456  1.2168   156.2    19.1    23.0
...
2024 02 25    10 23 31.3 -13 39 27   0.1518  1.1307   156.8    20.2    21.8
...
2024 03 02    10 11 48.9 -19 53 38   0.08489 1.0662   151.1    26.7    20.6
2024 03 03    10 07 43.9 -21 55 15   0.07411 1.0555   148.9    29.0    20.3
2024 03 04    10 02 07.3 -24 35 51   0.06351 1.0448   145.9    32.1    20.1
...
2024 03 10    01 29 43.8 -56 06 56   0.02266 0.9813    57.9   121.0    21.3
...
2024 03 18    22 57 03.4 -04 49 24   0.09892 0.8996    14.0   164.5    32.2
...
2024 04 02    22 51 17.0 +02 28 10   0.2785  0.7668    28.6   141.3    28.3
M. P. C. Staff               (C) Copyright 2024 MPC           M.P.E.C. 2024-E19
    
    
More information about the Iaude
mailing list